Regional Weather Roundup
Issued by NWS State College, PA

Home | Current Version | Previous Version | Graphics & Text | Print | Product List | Glossary On
Versions: 1 2 3 4 5 6 7 8 9 10 11 12 13 14 15 16 17 18 19 20 21 22 23 24 25 26 27 28 29 30 31 32 33 34 35 36 37 38 39 40 41 42 43 44 45 46 47 48 49 50
000
ASUS41 KCTP 192110
RWRCTP

REGIONAL WEATHER ROUNDUP
NATIONAL WEATHER SERVICE STATE COLLEGE PA
500 PM EDT SAT AUG 19 2017

Note: "fair" indicates few or no clouds below 12,000 feet with no
significant weather and/or obstructions to visibility.

* = STATION THAT DOES NOT REPORT PRECIPITATION /E.G. RAIN...SNOW...ETC/
    THUNDER OR FOG.

PAZ002>004-007>009-013>016-020>023-029>032-192200-
WESTERN PENNSYLVANIA

CITY           SKY/WX    TMP DP  RH WIND       PRES   REMARKS
ERIE           PTSUNNY   74  62  66 W13G20    29.90S
MEADVILLE      CLOUDY    74  63  68 W8        29.92S
FRANKLIN*      CLOUDY    73  61  64 NW6       29.92S
NEW CASTLE     FAIR      68  65  90 SW5       29.93S
BEAVER COUNTY  NOT AVBL
BUTLER*        MOSUNNY   64  63  94 SW5       29.94S
PITTSBURGH INT TSTM      67  63  87 SW6       29.97R
PITTSBURGH     TSTM      67  56  67 NW17G31   29.95R
INDIANA*       PTSUNNY   70  57  64 NW22G48   30.01R HAZE
LATROBE        PTSUNNY   81  64  57 SW14G25   29.91S
WASHINGTON CO* PTSUNNY   66  55  68 NW14G25   29.95R THUNDER
$$

PAZ004>006-010>012-017>019-024>028-033>037-041-042-045-046-049>053-192200-
CENTRAL PENNSYLVANIA

CITY           SKY/WX    TMP DP  RH WIND       PRES   REMARKS
BRADFORD       PTSUNNY   68  63  84 W8        29.92S
DUBOIS         LGT RAIN  68  63  84 W6        29.92R
CLEARFIELD     PTSUNNY   81  60  48 W7G20     29.89F
JOHNSTOWN      PTSUNNY   77  59  53 SW14      29.95S
ALTOONA        SUNNY     79  65  62 S8        29.92F
STATE COLLEGE  MOSUNNY   79  64  61 SW10      29.88F
WILLIAMSPORT   MOSUNNY   84  66  54 S7        29.82F
SELINSGROVE    MOSUNNY   83  67  58 VRB5      29.85F
FT INDIANTOWN  MOSUNNY   83  66  56 S9        29.86F
CAPITAL CITY   MOSUNNY   87  63  44 SW7       29.85F
HARRISBURG     MOSUNNY   87  66  49 SW6       29.85F
YORK           SUNNY     84  67  56 SW7       29.88F
$$

PAZ038>040-043-044-047-048-054-055-060>062-067>071-192200-
EASTERN PENNSYLVANIA

CITY           SKY/WX    TMP DP  RH WIND       PRES   REMARKS
SCRANTON       PTSUNNY   82  63  52 SW9       29.86F
MOUNT POCONO     N/A     75  61  61 W9G18     29.92F
ALLENTOWN      PTSUNNY   84  65  52 W9        29.86F
QUAKERTOWN*    PTCLDY    84  66  54 W6        29.89S
READING        SUNNY     85  66  53 W8        29.85F
LANCASTER      MOSUNNY   87  64  46 W10       29.87F
COATESVILLE    PTCLDY    81  66  61 SW5       29.91S
POTTSTOWN      MOSUNNY   83  65  54 SW8       29.89S
BLUE BELL      MOSUNNY   82  66  57 W5        29.87F
DOYLESTOWN     MOSUNNY   85  64  49 SW5       29.86F
WILLOW GROVE   NOT AVBL
NORTH PHILA    SUNNY     88  64  44 W8        29.86F
PHILADELPHIA   MOSUNNY   87  62  43 W10       29.85F
$$



USA.gov is the U.S. government's official web portal to all federal, state and local government web resources and services.